KC5KAW Weather Reports


Display with metric or nautical units.
time (UTC)temp
F
wind
direction
speed
MPH
gust
MPH
rain 1hr
in
rain 24hr
in
rain mn
in
humidity
%
barometer
mb
20220118110848 50 124 0.0 4.0 0.00 0.00 0.00 93 1017.5
20220118110340 50 128 0.0 4.0 0.00 0.00 0.00 93 1017.4
20220118105831 50 143 1.0 2.0 0.00 0.00 0.00 93 1017.1
20220118105324 50 104 0.0 2.0 0.00 0.00 0.00 93 1017.0
20220118104816 50 126 0.0 2.0 0.00 0.00 0.00 93 1017.0
20220118104307 50 105 2.0 2.0 0.00 0.00 0.00 94 1016.9
20220118103802 49 107 0.0 2.0 0.00 0.00 0.00 94 1017.0
20220118103242 49 132 0.0 1.0 0.00 0.00 0.00 94 1017.1
20220118102734 49 114 0.0 2.0 0.00 0.00 0.00 94 1017.4
20220118102226 49 101 0.0 3.0 0.00 0.00 0.00 94 1017.3
20220118101718 49 122 0.0 3.0 0.00 0.00 0.00 95 1017.3
20220118101208 49 95 0.0 2.0 0.00 0.00 0.00 95 1017.2
20220118100701 49 106 1.0 2.0 0.00 0.00 0.00 96 1017.5
20220118100153 48 97 1.0 1.0 0.00 0.00 0.00 96 1017.6
20220118095647 48 107 0.0 1.0 0.00 0.00 0.00 96 1017.4
20220118095125 48 118 0.0 1.0 0.00 0.00 0.00 96 1017.7
20220118094607 48 117 0.0 1.0 0.00 0.00 0.00 97 1017.7
20220118094101 48 120 0.0 1.0 0.00 0.00 0.00 97 1017.7
20220118093551 48 113 0.0 1.0 0.00 0.00 0.00 97 1017.7
20220118093022 48 117 0.0 1.0 0.00 0.00 0.00 97 1017.8
20220118092504 48 121 0.0 1.0 0.00 0.00 0.00 97 1017.7
20220118091955 47 105 0.0 1.0 0.00 0.00 0.00 97 1017.7
20220118091449 47 109 0.0 0.0 0.00 0.00 0.00 96 1017.8
20220118090915 47 114 0.0 0.0 0.00 0.00 0.00 96 1017.6
20220118090408 47 115 0.0 0.0 0.00 0.00 0.00 96 1017.9
20220118085900 48 115 0.0 0.0 0.00 0.00 0.00 96 1018.1
20220118085353 48 110 0.0 0.0 0.00 0.00 0.00 96 1017.8
20220118084843 48 109 0.0 1.0 0.00 0.00 0.00 96 1018.2
20220118084338 48 115 0.0 1.0 0.00 0.00 0.00 95 1017.7
20220118083828 48 112 0.0 0.0 0.00 0.00 0.00 95 1018.0
20220118083320 47 109 0.0 0.0 0.00 0.00 0.00 95 1018.0
20220118082801 47 109 0.0 1.0 0.00 0.00 0.00 95 1017.8
20220118082231 48 122 0.0 1.0 0.00 0.00 0.00 94 1018.0
20220118081723 48 123 0.0 1.0 0.00 0.00 0.00 94 1018.2
20220118081215 47 117 0.0 0.0 0.00 0.00 0.00 94 1018.1
20220118080710 47 119 0.0 0.0 0.00 0.00 0.00 93 1017.9
20220118080159 48 109 0.0 1.0 0.00 0.00 0.00 93 1018.1
20220118075650 48 112 0.0 1.0 0.00 0.00 0.00 93 1018.2
20220118075121 48 123 0.0 1.0 0.00 0.00 0.00 93 1018.3
20220118074613 48 116 0.0 1.0 0.00 0.00 0.00 92 1017.9
20220118074106 48 113 0.0 2.0 0.00 0.00 0.00 92 1018.4
20220118073556 48 125 0.0 2.0 0.00 0.00 0.00 91 1018.2
20220118073050 49 115 0.0 1.0 0.00 0.00 0.00 91 1018.2
20220118072544 48 169 1.0 1.0 0.00 0.00 0.00 91 1018.1
20220118072033 48 132 0.0 2.0 0.00 0.00 0.00 91 1018.3
20220118071524 48 120 0.0 2.0 0.00 0.00 0.00 91 1018.5
20220118071007 48 122 0.0 1.0 0.00 0.00 0.00 91 1018.3
20220118070457 48 118 0.0 1.0 0.00 0.00 0.00 91 1018.5
20220118065949 48 120 0.0 1.0 0.00 0.00 0.00 91 1018.3
20220118065444 48 111 0.0 1.0 0.00 0.00 0.00 90 1018.2
20220118064934 48 118 0.0 1.0 0.00 0.00 0.00 90 1018.3
20220118064425 48 112 0.0 4.0 0.00 0.00 0.00 90 1018.5
20220118063919 48 116 0.0 4.0 0.00 0.00 0.00 90 1018.4
20220118063409 48 115 0.0 2.0 0.00 0.00 0.00 91 1018.2
20220118062901 48 128 0.0 1.0 0.00 0.00 0.00 90 1018.7
20220118062355 48 136 0.0 2.0 0.00 0.00 0.00 90 1018.5
20220118061846 48 146 0.0 2.0 0.00 0.00 0.00 90 1018.5
20220118061340 48 110 0.0 2.0 0.00 0.00 0.00 90 1018.6
20220118060830 47 144 0.0 2.0 0.00 0.00 0.00 89 1018.6
20220118060314 47 135 0.0 2.0 0.00 0.00 0.00 89 1018.9
20220118055803 48 119 0.0 1.0 0.00 0.00 0.00 88 1019.0
20220118055254 48 128 0.0 1.0 0.00 0.00 0.00 88 1018.9
20220118054749 48 136 0.0 1.0 0.00 0.00 0.00 88 1019.2
20220118054238 47 121 0.0 1.0 0.00 0.00 0.00 88 1019.1
20220118053731 47 123 0.0 1.0 0.00 0.00 0.00 88 1019.1
20220118053203 48 116 0.0 1.0 0.00 0.00 0.00 87 1019.0
20220118052652 48 115 0.0 1.0 0.00 0.00 0.00 86 1019.3
20220118052146 48 135 0.0 1.0 0.00 0.00 0.00 86 1019.4
20220118051637 48 135 0.0 1.0 0.00 0.00 0.00 86 1019.3
20220118051129 48 132 0.0 1.0 0.00 0.00 0.00 85 1019.7
20220118050620 49 132 0.0 1.0 0.00 0.00 0.00 85 1019.7
20220118050117 49 114 0.0 1.0 0.00 0.00 0.00 84 1019.4
20220118045604 49 113 0.0 2.0 0.00 0.00 0.00 84 1019.7
20220118045059 49 114 0.0 2.0 0.00 0.00 0.00 83 1019.5
20220118044549 49 221 2.0 2.0 0.00 0.00 0.00 83 1019.7
20220118044043 49 119 0.0 2.0 0.00 0.00 0.00 82 1019.5
20220118043532 50 124 0.0 2.0 0.00 0.00 0.00 82 1019.5
20220118043028 50 131 0.0 3.0 0.00 0.00 0.00 81 1019.6
20220118042516 50 124 0.0 3.0 0.00 0.00 0.00 81 1019.6
20220118042011 50 176 1.0 3.0 0.00 0.00 0.00 80 1019.6
20220118041501 50 150 1.0 3.0 0.00 0.00 0.00 80 1019.3
20220118040956 50 191 1.0 2.0 0.00 0.00 0.00 80 1019.5
20220118040445 50 115 0.0 2.0 0.00 0.00 0.00 80 1019.8
20220118035926 50 142 0.0 2.0 0.00 0.00 0.00 79 1019.4
20220118035409 50 126 0.0 2.0 0.00 0.00 0.00 79 1019.6
20220118034859 51 130 0.0 2.0 0.00 0.00 0.00 78 1019.5
20220118034351 51 168 2.0 3.0 0.00 0.00 0.00 78 1019.7
20220118033843 51 135 0.0 3.0 0.00 0.00 0.00 77 1019.6
20220118033335 51 120 0.0 4.0 0.00 0.00 0.00 77 1019.6
20220118032818 51 128 2.0 4.0 0.00 0.00 0.00 76 1019.6
20220118032258 51 130 0.0 3.0 0.00 0.00 0.00 76 1019.3
20220118031748 51 179 2.0 3.0 0.00 0.00 0.00 76 1019.4
20220118031240 51 160 2.0 3.0 0.00 0.00 0.00 75 1019.6
20220118030733 51 149 1.0 2.0 0.00 0.00 0.00 75 1019.7
20220118030225 51 119 0.0 2.0 0.00 0.00 0.00 75 1019.4
20220118025716 51 144 1.0 2.0 0.00 0.00 0.00 74 1019.7
20220118025208 51 123 0.0 2.0 0.00 0.00 0.00 73 1019.5
20220118024703 52 142 1.0 3.0 0.00 0.00 0.00 73 1019.7
20220118024152 52 171 1.0 3.0 0.00 0.00 0.00 72 1019.7
20220118023644 52 161 1.0 4.0 0.00 0.00 0.00 72 1019.7
20220118023127 52 118 0.0 4.0 0.00 0.00 0.00 71 1019.5
20220118022607 52 151 0.0 3.0 0.00 0.00 0.00 71 1019.8
20220118022059 52 140 1.0 3.0 0.00 0.00 0.00 71 1019.6
20220118021551 52 167 2.0 2.0 0.00 0.00 0.00 71 1019.2
20220118021042 52 151 2.0 2.0 0.00 0.00 0.00 70 1019.5
20220118020535 52 118 0.0 2.0 0.00 0.00 0.00 69 1019.3
20220118020016 52 124 0.0 2.0 0.00 0.00 0.00 68 1019.4
20220118015459 53 122 0.0 2.0 0.00 0.00 0.00 67 1019.4
20220118014949 53 117 0.0 2.0 0.00 0.00 0.00 67 1019.5
20220118014440 53 166 0.0 2.0 0.00 0.00 0.00 66 1019.3
20220118013932 53 106 0.0 2.0 0.00 0.00 0.00 65 1019.3
20220118013424 54 122 0.0 3.0 0.00 0.00 0.00 64 1019.3
20220118012916 54 132 1.0 3.0 0.00 0.00 0.00 63 1019.1
20220118012413 54 159 1.0 2.0 0.00 0.00 0.00 63 1019.1
20220118011901 55 133 1.0 3.0 0.00 0.00 0.00 62 1019.1
20220118011356 55 121 0.0 4.0 0.00 0.00 0.00 61 1019.0
20220118010845 55 145 1.0 4.0 0.00 0.00 0.00 60 1019.2
20220118010336 56 159 2.0 3.0 0.00 0.00 0.00 59 1019.2
20220118005828 56 170 1.0 4.0 0.00 0.00 0.00 58 1018.8
20220118005322 56 143 3.0 4.0 0.00 0.00 0.00 58 1019.1
20220118004812 56 125 1.0 3.0 0.00 0.00 0.00 57 1018.7
20220118004305 57 124 0.0 3.0 0.00 0.00 0.00 57 1019.0
20220118003759 57 118 0.0 3.0 0.00 0.00 0.00 56 1019.2
20220118003248 58 136 1.0 3.0 0.00 0.00 0.00 55 1018.7
20220118002745 58 127 0.0 4.0 0.00 0.00 0.00 55 1019.0
20220118002221 59 120 0.0 4.0 0.00 0.00 0.00 53 1019.0
20220118001714 59 157 2.0 4.0 0.00 0.00 0.00 53 1018.5
20220118001206 60 136 2.0 6.0 0.00 0.00 0.00 52 1018.8
20220118000658 60 196 2.0 8.0 0.00 0.00 0.00 50 1018.4
20220118000153 61 113 1.0 8.0 0.00 0.00 0.00 47 1018.7
20220117235631 62 131 0.0 1.0 0.00 0.00 0.00 37 1018.5
20220117235122 62 131 0.0 0.0 0.00 0.00 0.00 35 1018.0
20220117234614 63 130 0.0 0.0 0.00 0.00 0.00 36 1018.0
20220117234107 64 130 0.0 0.0 0.00 0.00 0.00 35 1018.2
20220117233602 66 131 0.0 0.0 0.00 0.00 0.00 32 1018.2
20220117233039 67 139 0.0 0.0 0.00 0.00 0.00 33 1018.0
20220117232521 68 140 0.0 2.0 0.00 0.00 0.00 32 1018.6
20220117232001 67 141 0.0 3.0 0.00 0.00 0.00 30 1018.6
20220117231456 67 183 1.0 3.0 0.00 0.00 0.00 29 1018.5
20220117230935 68 260 2.0 3.0 0.00 0.00 0.00 29 1018.5
20220117230418 68 119 1.0 3.0 0.00 0.00 0.00 29 1018.3
20220117225908 68 184 1.0 4.0 0.00 0.00 0.00 28 1018.4
20220117225400 68 207 2.0 4.0 0.00 0.00 0.00 28 1018.3
20220117224851 70 203 1.0 2.0 0.00 0.00 0.00 27 1018.4
20220117224346 69 166 0.0 2.0 0.00 0.00 0.00 29 1018.4
20220117223824 69 228 1.0 4.0 0.00 0.00 0.00 28 1018.4
20220117223306 69 162 0.0 6.0 0.00 0.00 0.00 28 1018.5
20220117222758 68 217 3.0 6.0 0.00 0.00 0.00 28 1018.5
20220117222241 69 264 3.0 7.0 0.00 0.00 0.00 28 1018.4
20220117221720 69 239 2.0 7.0 0.00 0.00 0.00 28 1018.6
20220117221214 68 277 3.0 6.0 0.00 0.00 0.00 28 1018.7
20220117220703 69 215 2.0 4.0 0.00 0.00 0.00 28 1018.6
20220117220155 69 224 1.0 6.0 0.00 0.00 0.00 28 1018.6
20220117215650 69 239 4.0 6.0 0.00 0.00 0.00 29 1018.5
20220117215129 68 263 2.0 6.0 0.00 0.00 0.00 29 1018.7
20220117214621 69 206 1.0 6.0 0.00 0.00 0.00 28 1018.8
20220117214113 69 193 2.0 6.0 0.00 0.00 0.00 26 1018.5
20220117213607 69 224 3.0 6.0 0.00 0.00 0.00 28 1018.6
20220117213057 68 228 2.0 6.0 0.00 0.00 0.00 27 1018.8
20220117212549 69 177 2.0 4.0 0.00 0.00 0.00 27 1018.8
20220117212033 69 245 4.0 6.0 0.00 0.00 0.00 26 1018.8
20220117211522 68 246 1.0 6.0 0.00 0.00 0.00 26 1018.6
20220117211015 70 266 2.0 7.0 0.00 0.00 0.00 26 1018.8
20220117210505 69 230 2.0 4.0 0.00 0.00 0.00 27 1018.7
20220117205958 68 329 2.0 3.0 0.00 0.00 0.00 26 1019.0
20220117205441 68 146 1.0 4.0 0.00 0.00 0.00 28 1018.9
20220117204920 68 221 1.0 6.0 0.00 0.00 0.00 28 1019.0
20220117204414 68 315 5.0 6.0 0.00 0.00 0.00 29 1018.8
20220117203904 69 264 2.0 6.0 0.00 0.00 0.00 27 1018.9
20220117203358 69 173 1.0 6.0 0.00 0.00 0.00 29 1018.9
20220117202848 68 142 1.0 4.0 0.00 0.00 0.00 28 1018.8
20220117202331 69 240 2.0 4.0 0.00 0.00 0.00 28 1019.0
20220117201824 69 136 0.0 6.0 0.00 0.00 0.00 28 1018.9
20220117201316 67 84 2.0 6.0 0.00 0.00 0.00 29 1018.9
20220117200805 68 200 2.0 3.0 0.00 0.00 0.00 28 1018.9
20220117200259 68 157 1.0 4.0 0.00 0.00 0.00 27 1018.9
20220117195749 67 101 2.0 4.0 0.00 0.00 0.00 27 1019.3
20220117195244 66 127 1.0 4.0 0.00 0.00 0.00 29 1019.2
20220117194733 67 148 0.0 4.0 0.00 0.00 0.00 28 1019.5
20220117194226 67 125 0.0 4.0 0.00 0.00 0.00 29 1019.5
20220117193706 67 27 2.0 4.0 0.00 0.00 0.00 30 1019.5
20220117193201 68 127 2.0 3.0 0.00 0.00 0.00 27 1019.5
20220117192649 67 134 0.0 2.0 0.00 0.00 0.00 28 1019.2
20220117192142 68 152 1.0 4.0 0.00 0.00 0.00 27 1019.6
20220117191637 67 158 0.0 4.0 0.00 0.00 0.00 30 1020.0
20220117191104 67 224 1.0 4.0 0.00 0.00 0.00 28 1020.2
20220117190556 66 238 2.0 3.0 0.00 0.00 0.00 30 1020.6
20220117190050 67 239 1.0 2.0 0.00 0.00 0.00 30 1020.1
20220117185529 65 84 2.0 2.0 0.00 0.00 0.00 30 1020.3
20220117185015 65 148 0.0 6.0 0.00 0.00 0.00 29 1020.3
20220117184452 65 177 1.0 6.0 0.00 0.00 0.00 32 1020.3
20220117183943 65 154 2.0 4.0 0.00 0.00 0.00 30 1020.6
20220117183427 65 187 2.0 4.0 0.00 0.00 0.00 31 1020.6
20220117182905 65 135 0.0 3.0 0.00 0.00 0.00 31 1020.9
20220117182357 65 74 1.0 4.0 0.00 0.00 0.00 30 1021.1
20220117181850 65 266 4.0 4.0 0.00 0.00 0.00 31 1021.2
20220117181342 64 146 0.0 4.0 0.00 0.00 0.00 31 1021.1
20220117180832 63 148 1.0 4.0 0.00 0.00 0.00 32 1021.1
20220117180313 64 77 1.0 4.0 0.00 0.00 0.00 31 1021.3
20220117175808 64 230 3.0 6.0 0.00 0.00 0.00 33 1021.6
20220117175259 63 147 1.0 6.0 0.00 0.00 0.00 33 1021.6
20220117174751 64 222 1.0 4.0 0.00 0.00 0.00 32 1021.5
20220117174242 64 198 4.0 4.0 0.00 0.00 0.00 33 1021.9
20220117173735 63 128 0.0 3.0 0.00 0.00 0.00 33 1021.8
20220117173215 63 192 1.0 3.0 0.00 0.00 0.00 35 1021.8
20220117172708 62 112 1.0 3.0 0.00 0.00 0.00 37 1022.0
20220117172201 62 154 1.0 4.0 0.00 0.00 0.00 35 1022.0
20220117171652 62 102 0.0 4.0 0.00 0.00 0.00 35 1022.1
20220117171143 62 139 0.0 3.0 0.00 0.00 0.00 36 1022.2
20220117170626 61 65 1.0 3.0 0.00 0.00 0.00 37 1022.5
20220117170105 60 107 2.0 3.0 0.00 0.00 0.00 38 1022.3
20220117165557 60 90 2.0 3.0 0.00 0.00 0.00 38 1022.2
20220117165051 60 116 1.0 2.0 0.00 0.00 0.00 41 1022.2
20220117164540 60 136 0.0 2.0 0.00 0.00 0.00 42 1022.1
20220117164033 60 127 1.0 2.0 0.00 0.00 0.00 40 1022.3
20220117163513 58 123 1.0 3.0 0.00 0.00 0.00 45 1022.4
20220117163009 58 76 2.0 4.0 0.00 0.00 0.00 45 1022.2
20220117162457 58 131 2.0 4.0 0.00 0.00 0.00 46 1022.2
20220117161949 58 131 1.0 2.0 0.00 0.00 0.00 46 1022.2
20220117161442 58 103 1.0 3.0 0.00 0.00 0.00 48 1022.2
20220117160933 58 115 2.0 3.0 0.00 0.00 0.00 49 1022.2
20220117160425 57 127 0.0 2.0 0.00 0.00 0.00 51 1022.4
20220117155917 56 125 0.0 2.0 0.00 0.00 0.00 51 1022.3
20220117155410 56 102 1.0 2.0 0.00 0.00 0.00 54 1022.3
20220117154901 55 124 0.0 2.0 0.00 0.00 0.00 56 1022.2
20220117154356 54 137 0.0 2.0 0.00 0.00 0.00 59 1022.0
20220117153845 54 151 0.0 1.0 0.00 0.00 0.00 61 1022.1
20220117153341 53 137 0.0 2.0 0.00 0.00 0.00 62 1022.1
20220117152830 52 119 1.0 2.0 0.00 0.00 0.00 65 1022.0
20220117152311 51 135 1.0 2.0 0.00 0.00 0.00 66 1021.9
20220117151803 51 130 0.0 1.0 0.00 0.00 0.00 71 1022.0
20220117151255 49 122 0.0 0.0 0.00 0.00 0.00 73 1022.0
20220117150748 49 122 0.0 0.0 0.00 0.00 0.00 73 1022.0
20220117150241 48 117 0.0 2.0 0.00 0.00 0.00 73 1022.0
20220117145720 48 106 0.0 2.0 0.00 0.00 0.00 73 1021.8
20220117145214 46 117 0.0 0.0 0.00 0.00 0.00 78 1021.8
20220117144704 45 102 0.0 1.0 0.00 0.00 0.00 80 1021.7
20220117144158 45 102 0.0 1.0 0.00 0.00 0.00 81 1021.9
20220117143648 43 113 0.0 0.0 0.00 0.00 0.00 85 1021.9
20220117143132 43 113 0.0 0.0 0.00 0.00 0.00 87 1021.6
20220117142559 42 107 0.0 0.0 0.00 0.00 0.00 88 1021.8
20220117142054 40 113 0.0 0.0 0.00 0.00 0.00 91 1021.9
20220117141543 40 113 0.0 0.0 0.00 0.00 0.00 96 1021.6
20220117141023 38 113 0.0 0.0 0.00 0.00 0.00 98 1021.5
20220117140504 38 113 0.0 0.0 0.00 0.00 0.00 99 1021.4
20220117135957 38 113 0.0 0.0 0.00 0.00 0.00 99 1021.4
20220117135448 37 113 0.0 0.0 0.00 0.00 0.00 99 1021.3
20220117134941 35 113 0.0 0.0 0.00 0.00 0.00 99 1021.4
20220117134436 35 113 0.0 0.0 0.00 0.00 0.00 99 1021.2
20220117133916 35 112 0.0 0.0 0.00 0.00 0.00 99 1021.4
20220117133355 34 115 0.0 0.0 0.00 0.00 0.00 99 1021.3
20220117132847 33 115 0.0 0.0 0.00 0.00 0.00 99 1021.2
20220117132339 33 115 0.0 0.0 0.00 0.00 0.00 99 1021.1
20220117131831 34 115 0.0 0.0 0.00 0.00 0.00 99 1021.0
20220117131314 34 116 0.0 0.0 0.00 0.00 0.00 99 1021.0
20220117130804 33 115 0.0 0.0 0.00 0.00 0.00 99 1021.0
20220117130258 34 115 0.0 0.0 0.00 0.00 0.00 99 1020.8
20220117125737 33 115 0.0 0.0 0.00 0.00 0.00 99 1020.5
20220117125231 34 115 0.0 1.0 0.00 0.00 0.00 99 1020.6
20220117124710 34 129 0.0 1.0 0.00 0.00 0.00 99 1020.6
20220117124203 34 110 0.0 0.0 0.00 0.00 0.00 99 1020.5
20220117123653 34 110 0.0 0.0 0.00 0.00 0.00 99 1020.5
20220117123134 34 102 0.0 0.0 0.00 0.00 0.00 99 1020.4
20220117122626 34 102 0.0 0.0 0.00 0.00 0.00 99 1020.3
20220117122119 33 102 0.0 0.0 0.00 0.00 0.00 99 1020.2
20220117121611 34 102 0.0 0.0 0.00 0.00 0.00 99 1020.3
20220117121106 34 110 0.0 0.0 0.00 0.00 0.00 99 1020.0
20220117120554 34 110 0.0 0.0 0.00 0.00 0.00 99 1020.1
20220117120049 34 110 0.0 0.0 0.00 0.00 0.00 99 1020.1
20220117115538 34 110 0.0 0.0 0.00 0.00 0.00 99 1020.0
20220117115034 34 110 0.0 0.0 0.00 0.00 0.00 99 1020.1
20220117114511 34 110 0.0 0.0 0.00 0.00 0.00 99 1020.4
20220117114006 34 110 0.0 0.0 0.00 0.00 0.00 99 1020.2
20220117113456 34 110 0.0 0.0 0.00 0.00 0.00 99 1020.2
20220117112937 33 110 0.0 0.0 0.00 0.00 0.00 99 1020.1
20220117112429 34 110 0.0 0.0 0.00 0.00 0.00 99 1020.1
20220117111921 34 110 0.0 0.0 0.00 0.00 0.00 98 1019.8
20220117111404 34 110 0.0 0.0 0.00 0.00 0.00 98 1019.8